Location: Mauries
(43.6188°N, 0.3322°W)
Time: 20:16:03
(UTC+00:00)

Cosmos 1269 Rocket - Pass Details

Date: 14 January 2026
Orbit: 769 x 775 km, 74.1° (Epoch: 11 February)

Event Time Altitude Azimuth Distance (km) Brightness Sun altitude
Rises 06:50:19 0° 221° (SW) 3,238 7.1 -7.7°
Reaches altitude 10° 06:52:50 10° 229° (SW) 2,316 6.2 -7.2°
Maximum altitude 06:57:45 39° 298° (WNW) 1,151 4.5 -6.4°
Drops below altitude 10° 07:02:42 10° 7° (N) 2,332 6.3 -5.6°
Sets 07:05:15 0° 15° (NNE) 3,263 7.2 -5.2°
